CW3956 Weather Reports


time (UTC)temp
C
wind
direction
speed
KPH
gust
KPH
rain 1hr
cm
rain 24hr
cm
rain mn
cm
humidity
%
barometer
mb
20260506014003 23 340 1.6 6.4 0.00 0.00 0.00 66 1007.0
20260506013507 23 9 1.6 11.3 0.00 0.00 0.00 65 1006.8
20260506013019 23 313 1.6 12.9 0.00 0.00 0.00 65 1007.0
20260506012510 23 340 3.2 12.9 0.00 0.00 0.00 65 1006.7
20260506012010 23 49 3.2 11.3 0.00 0.00 0.00 64 1006.9
20260506011528 23 49 4.8 9.7 0.00 0.00 0.00 64 1006.9
20260506011007 23 44 4.8 9.7 0.00 0.00 0.00 64 1006.7
20260506010503 23 31 1.6 9.7 0.00 0.00 0.00 64 1006.6
20260506010012 23 302 3.2 9.7 0.00 0.00 0.00 64 1006.4
20260506005504 23 323 3.2 8.0 0.00 0.00 0.00 64 1006.0
20260506005006 24 20 3.2 8.0 0.00 0.00 0.00 63 1005.9
20260506004523 24 312 3.2 11.3 0.00 0.00 0.00 63 1006.2
20260506004011 24 312 3.2 11.3 0.00 0.00 0.00 62 1006.2
20260506003507 25 315 4.8 14.5 0.00 0.00 0.00 62 1006.1
20260506003018 25 352 4.8 14.5 0.00 0.00 0.00 63 1006.1
20260506002507 25 9 1.6 9.7 0.00 0.00 0.00 62 1006.2
20260506002009 25 343 4.8 9.7 0.00 0.00 0.00 61 1006.2
20260506001524 26 19 3.2 12.9 0.00 0.00 0.00 60 1006.2
20260506001009 26 352 3.2 16.1 0.00 0.00 0.00 60 1006.1
20260506000511 26 336 6.4 16.1 0.00 0.00 0.00 60 1006.0
20260506000025 26 324 4.8 19.3 0.00 0.00 0.00 60 1005.6
20260505235510 26 65 4.8 19.3 0.00 0.00 0.00 59 1005.4
20260505235002 27 68 4.8 14.5 0.00 0.00 0.00 58 1005.3
20260505234510 27 302 4.8 16.1 0.00 0.00 0.00 56 1005.3
20260505234004 28 17 4.8 16.1 0.00 0.00 0.00 55 1005.3
20260505233504 28 326 6.4 16.1 0.00 0.00 0.00 54 1005.5
20260505233017 29 319 3.2 14.5 0.00 0.00 0.00 53 1005.4
20260505232509 29 336 4.8 11.3 0.00 0.00 0.00 50 1005.2
20260505232007 30 343 4.8 9.7 0.00 0.00 0.00 49 1005.1
20260505231529 30 9 3.2 11.3 0.00 0.00 0.00 47 1005.0
20260505231009 30 32 4.8 11.3 0.00 0.00 0.00 46 1004.9
20260505230507 31 11 4.8 11.3 0.00 0.00 0.00 44 1004.7
20260505230028 31 339 4.8 9.7 0.00 0.00 0.00 44 1004.7
20260505225514 31 330 3.2 6.4 0.00 0.00 0.00 45 1004.6
20260505225013 31 280 1.6 9.7 0.00 0.00 0.00 50 1004.5
20260505224528 31 205 1.6 9.7 0.00 0.00 0.00 50 1004.5
20260505224010 31 209 6.4 11.3 0.00 0.00 0.00 50 1004.6
20260505223507 31 360 3.2 12.9 0.00 0.00 0.00 50 1004.5
20260505223016 31 244 4.8 12.9 0.00 0.00 0.00 51 1004.3
20260505222506 31 254 6.4 12.9 0.00 0.00 0.00 50 1004.3
20260505222008 31 219 1.6 8.0 0.00 0.00 0.00 52 1004.2
20260505221520 31 238 1.6 14.5 0.00 0.00 0.00 51 1004.1
20260505221006 31 246 4.8 19.3 0.00 0.00 0.00 51 1004.2
20260505220507 31 188 8.0 19.3 0.00 0.00 0.00 52 1004.3
20260505220023 31 201 1.6 16.1 0.00 0.00 0.00 54 1004.3
20260505215510 31 360 4.8 14.5 0.00 0.00 0.00 53 1004.4
20260505215009 31 360 6.4 14.5 0.00 0.00 0.00 53 1004.4
20260505214535 31 216 4.8 17.7 0.00 0.00 0.00 52 1004.3
20260505214012 31 222 9.7 17.7 0.00 0.00 0.00 53 1004.3
20260505213512 31 360 4.8 11.3 0.00 0.00 0.00 53 1004.5
20260505213028 31 186 1.6 16.1 0.00 0.00 0.00 53 1004.6
20260505212510 31 360 3.2 22.5 0.00 0.00 0.00 55 1004.6
20260505212007 31 236 9.7 25.7 0.00 0.00 0.00 54 1004.7
20260505211520 31 198 12.9 25.7 0.00 0.00 0.00 53 1004.7
20260505211007 31 226 8.0 22.5 0.00 0.00 0.00 55 1004.8
20260505210511 31 180 9.7 19.3 0.00 0.00 0.00 56 1004.7
20260505210002 31 212 4.8 19.3 0.00 0.00 0.00 57 1004.7
20260505205507 31 204 9.7 19.3 0.00 0.00 0.00 56 1004.8
20260505205006 31 178 8.0 19.3 0.00 0.00 0.00 56 1004.9
20260505204506 31 259 9.7 19.3 0.00 0.00 0.00 57 1004.9
20260505204003 31 214 8.0 17.7 0.00 0.00 0.00 57 1004.9
20260505203502 31 232 9.7 16.1 0.00 0.00 0.00 57 1005.1
20260505203011 31 360 9.7 22.5 0.00 0.00 0.00 59 1005.2
20260505202504 31 209 6.4 22.5 0.00 0.00 0.00 59 1005.1
20260505202008 30 225 4.8 20.9 0.00 0.00 0.00 59 1005.1
20260505201514 30 226 9.7 20.9 0.00 0.00 0.00 60 1005.2
20260505201006 30 167 4.8 22.5 0.00 0.00 0.00 60 1005.2
20260505200509 30 266 9.7 22.5 0.00 0.00 0.00 59 1005.1
20260505200035 30 245 8.0 22.5 0.00 0.00 0.00 59 1005.2
20260505195511 30 211 8.0 24.1 0.00 0.00 0.00 59 1005.2
20260505195002 30 223 4.8 24.1 0.00 0.00 0.00 61 1005.3
20260505194507 30 239 6.4 20.9 0.00 0.00 0.00 61 1005.3
20260505194006 30 217 9.7 20.9 0.00 0.00 0.00 60 1005.4
20260505193503 29 213 6.4 16.1 0.00 0.00 0.00 62 1005.5
20260505193010 29 223 8.0 22.5 0.00 0.00 0.00 62 1005.4
20260505192504 29 232 4.8 24.1 0.00 0.00 0.00 63 1005.3
20260505192005 29 191 6.4 24.1 0.00 0.00 0.00 63 1005.5
20260505191514 28 219 8.0 19.3 0.00 0.00 0.00 64 1005.4
20260505191006 28 196 4.8 19.3 0.00 0.00 0.00 65 1005.4
20260505190506 28 239 9.7 29.0 0.00 0.00 0.00 65 1005.4
20260505190019 28 176 9.7 29.0 0.00 0.00 0.00 66 1005.4
20260505185507 27 205 8.0 27.4 0.00 0.00 0.00 66 1005.4
20260505185006 27 175 8.0 24.1 0.00 0.00 0.00 66 1005.5
20260505184524 27 230 12.9 29.0 0.00 0.00 0.00 66 1005.5
20260505184004 27 248 12.9 25.7 0.00 0.00 0.00 66 1005.6
20260505183502 27 219 9.7 22.5 0.00 0.00 0.00 67 1005.5
20260505183005 27 245 11.3 27.4 0.00 0.00 0.00 67 1005.5
20260505182503 27 198 17.7 27.4 0.00 0.00 0.00 67 1005.5
20260505182005 27 218 9.7 27.4 0.00 0.00 0.00 67 1005.5
20260505181512 27 360 12.9 25.7 0.00 0.00 0.00 68 1005.6
20260505181004 27 215 9.7 27.4 0.00 0.00 0.00 68 1005.6
20260505180503 27 270 11.3 27.4 0.00 0.00 0.00 68 1005.5
20260505180017 27 219 16.1 27.4 0.00 0.00 0.00 68 1005.6
20260505175506 27 210 11.3 24.1 0.00 0.00 0.00 68 1005.5
20260505175007 27 236 9.7 25.7 0.00 0.00 0.00 69 1005.5
20260505174523 27 231 8.0 32.2 0.00 0.00 0.00 70 1005.6
20260505174008 27 187 14.5 29.0 0.00 0.00 0.00 69 1005.8
20260505173507 26 212 11.3 27.4 0.00 0.00 0.00 69 1005.7
20260505173026 26 198 9.7 25.7 0.00 0.00 0.00 70 1005.7
20260505172503 26 262 9.7 25.7 0.00 0.00 0.00 70 1005.8
20260505172005 26 215 6.4 27.4 0.00 0.00 0.00 71 1005.8
20260505171515 26 217 8.0 27.4 0.00 0.00 0.00 71 1005.9
20260505171004 26 228 12.9 24.1 0.00 0.00 0.00 71 1005.9
20260505170502 26 249 11.3 24.1 0.00 0.00 0.00 71 1006.0
20260505170017 26 186 11.3 32.2 0.00 0.00 0.00 71 1005.9
20260505165504 26 205 12.9 32.2 0.00 0.00 0.00 71 1006.0
20260505165009 26 220 12.9 30.6 0.00 0.00 0.00 71 1005.9
20260505164518 26 200 14.5 27.4 0.00 0.00 0.00 71 1005.9
20260505164008 26 230 11.3 29.0 0.00 0.00 0.00 72 1005.7
20260505163507 25 213 9.7 30.6 0.00 0.00 0.00 72 1005.8
20260505163022 25 219 12.9 30.6 0.00 0.00 0.00 72 1005.7
20260505162507 25 240 12.9 30.6 0.00 0.00 0.00 72 1005.7
20260505162010 25 173 9.7 30.6 0.00 0.00 0.00 72 1005.7
20260505161528 25 212 12.9 24.1 0.00 0.00 0.00 72 1005.7
20260505161004 25 202 9.7 30.6 0.00 0.00 0.00 73 1005.7
20260505160502 25 214 12.9 30.6 0.00 0.00 0.00 72 1005.6
20260505153023 24 221 12.9 35.4 0.00 0.00 0.00 75 1005.4
20260505152508 24 215 17.7 37.0 0.00 0.00 0.00 75 1005.4
20260505152013 24 188 12.9 32.2 0.00 0.00 0.00 75 1005.5
20260505151525 24 244 12.9 33.8 0.00 0.00 0.00 76 1005.5
20260505151009 23 227 9.7 33.8 0.00 0.00 0.00 76 1005.6
20260505150508 23 191 11.3 27.4 0.00 0.00 0.00 76 1005.5
20260505140512 22 171 9.7 27.4 0.00 0.00 0.00 80 1005.4
20260505125010 22 212 9.7 30.6 0.00 0.00 0.00 81 1004.8
20260505124530 22 234 11.3 32.2 0.00 0.00 0.00 81 1004.8
20260505124009 22 200 11.3 32.2 0.00 0.00 0.00 81 1004.8
20260505123511 21 172 8.0 24.1 0.00 0.00 0.00 81 1004.6
20260505123027 21 211 11.3 24.1 0.00 0.00 0.00 81 1004.6
20260505122505 21 216 8.0 24.1 0.00 0.00 0.00 81 1004.4
20260505122011 21 195 8.0 24.1 0.00 0.00 0.00 81 1004.4
20260505121523 22 230 9.7 30.6 0.00 0.00 0.00 81 1004.4
20260505121010 21 235 11.3 35.4 0.00 0.00 0.00 81 1004.4
20260505120508 21 228 14.5 35.4 0.00 0.00 0.00 81 1004.4
20260505120007 22 244 8.0 24.1 0.00 0.00 0.00 81 1004.2
20260505115503 21 219 8.0 24.1 0.00 0.00 0.00 81 1004.1
20260505115003 22 193 9.7 37.0 0.00 0.00 0.00 81 1004.2
20260505114504 21 177 6.4 37.0 0.00 0.00 0.00 81 1004.3
20260505114003 21 200 8.0 24.1 0.00 0.00 0.00 81 1004.0
20260505113502 21 239 11.3 24.1 0.00 0.00 0.00 81 1004.2
20260505113007 21 216 14.5 24.1 0.00 0.00 0.00 81 1004.1
20260505112502 21 173 6.4 19.3 0.00 0.00 0.00 81 1004.3
20260505112002 21 218 6.4 20.9 0.00 0.00 0.00 81 1004.0
20260505111507 21 223 8.0 20.9 0.00 0.00 0.00 81 1004.3
20260505111004 21 194 8.0 27.4 0.00 0.00 0.00 81 1004.2
20260505110503 21 187 6.4 27.4 0.00 0.00 0.00 81 1004.3
20260505102003 21 225 8.0 27.4 0.00 0.00 0.00 81 1004.4
20260505101509 21 206 9.7 27.4 0.00 0.00 0.00 81 1004.3
20260505101003 21 211 9.7 25.7 0.00 0.00 0.00 80 1004.3
20260505100504 21 243 11.3 25.7 0.00 0.00 0.00 80 1004.2
20260505100003 21 196 8.0 27.4 0.00 0.00 0.00 80 1004.2
20260505095502 21 244 12.9 29.0 0.00 0.00 0.00 81 1004.2
20260505095004 21 222 9.7 29.0 0.00 0.00 0.00 81 1004.4
20260505094507 21 225 8.0 29.0 0.00 0.00 0.00 81 1004.2
20260505094006 21 212 14.5 29.0 0.00 0.00 0.00 81 1004.4
20260505093502 21 233 8.0 22.5 0.00 0.00 0.00 81 1004.4
20260505093007 21 247 11.3 24.1 0.00 0.00 0.00 81 1004.3
20260505092503 21 225 6.4 25.7 0.00 0.00 0.00 81 1004.5
20260505092003 21 244 11.3 33.8 0.00 0.00 0.00 81 1004.5
20260505091508 21 253 12.9 33.8 0.00 0.00 0.00 81 1004.5
20260505091003 21 295 11.3 29.0 0.00 0.00 0.00 81 1004.7
20260505090503 21 188 11.3 30.6 0.00 0.00 0.00 81 1004.7
20260505090012 21 234 12.9 30.6 0.00 0.00 0.00 81 1004.6
20260505085503 21 186 12.9 24.1 0.00 0.00 0.00 81 1004.5
20260505085003 21 196 8.0 20.9 0.00 0.00 0.00 81 1004.6
20260505084505 21 208 12.9 25.7 0.00 0.00 0.00 81 1004.7
20260505084004 21 184 4.8 25.7 0.00 0.00 0.00 81 1004.6
20260505083502 21 182 8.0 17.7 0.00 0.00 0.00 81 1004.6
20260505083013 21 179 6.4 20.9 0.00 0.00 0.00 81 1004.8
20260505082504 21 178 6.4 20.9 0.00 0.00 0.00 80 1004.8
20260505082003 21 220 4.8 25.7 0.00 0.00 0.00 80 1004.7
20260505081512 21 201 8.0 25.7 0.00 0.00 0.00 80 1004.8
20260505081007 21 180 4.8 17.7 0.00 0.00 0.00 80 1004.8
20260505080504 21 196 8.0 19.3 0.00 0.00 0.00 79 1004.9
20260505080012 21 211 8.0 22.5 0.00 0.00 0.00 79 1004.9
20260505075504 21 196 6.4 22.5 0.00 0.00 0.00 79 1004.8
20260505075007 22 245 6.4 22.5 0.00 0.00 0.00 79 1005.1
20260505074513 22 261 8.0 16.1 0.00 0.00 0.00 79 1005.2
20260505074004 22 241 8.0 25.7 0.00 0.00 0.00 78 1005.2
20260505073503 22 175 9.7 33.8 0.00 0.00 0.00 78 1005.3
20260505073008 22 224 6.4 33.8 0.00 0.00 0.00 78 1005.5
20260505072505 22 215 8.0 25.7 0.00 0.00 0.00 78 1005.5
20260505072003 22 196 9.7 25.7 0.00 0.00 0.00 77 1005.6
20260505071523 22 223 8.0 25.7 0.00 0.00 0.00 77 1005.7
20260505071003 22 231 8.0 20.9 0.00 0.00 0.00 77 1005.7
20260505070506 22 168 6.4 27.4 0.00 0.00 0.00 77 1005.8
20260505070016 22 225 14.5 25.7 0.00 0.00 0.00 77 1005.8
20260505065503 22 213 11.3 25.7 0.00 0.00 0.00 76 1005.8
20260505065004 22 240 9.7 20.9 0.00 0.00 0.00 76 1006.0
20260505064521 22 207 4.8 19.3 0.00 0.00 0.00 76 1006.1
20260505064007 22 240 6.4 22.5 0.00 0.00 0.00 76 1006.1
20260505063503 22 219 8.0 25.7 0.00 0.00 0.00 76 1006.1
20260505063011 22 220 9.7 25.7 0.00 0.00 0.00 76 1006.2
20260505062503 22 227 4.8 27.4 0.00 0.00 0.00 75 1006.2
20260505062004 22 208 12.9 27.4 0.00 0.00 0.00 75 1006.2
20260505061511 22 208 8.0 22.5 0.00 0.00 0.00 75 1006.2
20260505061003 22 252 8.0 17.7 0.00 0.00 0.00 75 1006.2
20260505060506 22 210 6.4 22.5 0.00 0.00 0.00 75 1006.1
20260505060014 22 209 9.7 25.7 0.00 0.00 0.00 75 1006.2
20260505055504 22 231 6.4 25.7 0.00 0.00 0.00 75 1006.2
20260505055007 22 219 6.4 22.5 0.00 0.00 0.00 74 1006.2
20260505054527 22 186 6.4 25.7 0.00 0.00 0.00 74 1006.4
20260505054011 22 250 8.0 25.7 0.00 0.00 0.00 74 1006.4
20260505053505 22 260 4.8 25.7 0.00 0.00 0.00 73 1006.4
20260505053024 22 226 6.4 25.7 0.00 0.00 0.00 73 1006.5
20260505052508 22 232 8.0 30.6 0.00 0.00 0.00 73 1006.6
20260505052007 22 241 9.7 30.6 0.00 0.00 0.00 73 1006.5
20260505051509 22 200 6.4 20.9 0.00 0.00 0.00 72 1006.5
20260505051006 22 221 11.3 20.9 0.00 0.00 0.00 72 1006.6
20260505050505 22 219 4.8 19.3 0.00 0.00 0.00 72 1006.6
20260505041522 23 114 8.0 25.7 0.00 0.00 0.00 70 1006.9
20260505041007 23 208 8.0 20.9 0.00 0.00 0.00 70 1006.9
20260505040507 23 166 6.4 22.5 0.00 0.00 0.00 70 1007.0
20260505040015 23 185 4.8 22.5 0.00 0.00 0.00 69 1007.1
20260505035505 23 211 4.8 19.3 0.00 0.00 0.00 69 1007.0
20260505035003 23 215 6.4 19.3 0.00 0.00 0.00 69 1006.9
20260505034515 23 240 4.8 17.7 0.00 0.00 0.00 69 1007.0
20260505034007 23 228 6.4 19.3 0.00 0.00 0.00 69 1006.9
20260505033507 23 215 4.8 19.3 0.00 0.00 0.00 68 1006.8
20260505033027 23 248 6.4 19.3 0.00 0.00 0.00 68 1006.9
20260505032507 23 202 8.0 17.7 0.00 0.00 0.00 68 1006.9
20260505032011 23 211 6.4 14.5 0.00 0.00 0.00 68 1006.9
20260505031521 23 264 6.4 24.1 0.00 0.00 0.00 68 1006.9
20260505031009 23 188 6.4 22.5 0.00 0.00 0.00 68 1006.9
20260505030511 23 183 4.8 17.7 0.00 0.00 0.00 68 1006.9
20260505030026 23 179 8.0 17.7 0.00 0.00 0.00 68 1006.8
20260505025507 23 226 4.8 19.3 0.00 0.00 0.00 68 1006.8
20260505025010 23 193 6.4 20.9 0.00 0.00 0.00 67 1006.8
20260505024512 23 177 8.0 20.9 0.00 0.00 0.00 67 1006.8
20260505024006 23 130 8.0 17.7 0.00 0.00 0.00 67 1006.8
20260505023505 23 209 4.8 19.3 0.00 0.00 0.00 67 1006.9
20260505023019 23 237 8.0 19.3 0.00 0.00 0.00 67 1006.8
20260505022509 23 198 4.8 22.5 0.00 0.00 0.00 67 1006.7
20260505022008 23 174 6.4 22.5 0.00 0.00 0.00 67 1006.8
20260505021526 23 221 8.0 19.3 0.00 0.00 0.00 66 1006.8
20260505021006 23 227 6.4 16.1 0.00 0.00 0.00 66 1006.7
20260505020511 23 236 4.8 14.5 0.00 0.00 0.00 66 1006.6
20260505020024 23 175 4.8 12.9 0.00 0.00 0.00 66 1006.6
20260505015510 23 182 4.8 11.3 0.00 0.00 0.00 65 1006.7
20260505015012 24 235 4.8 11.3 0.00 0.00 0.00 65 1006.8
20260505014528 24 175 4.8 11.3 0.00 0.00 0.00 65 1006.8